Address 0x98de7966E876626A4DC5648f5d706682C2b9dA9B

 
 
Txn Hash Method
Block
From
To
Value [Txn Fee]
0xea46639d4f426291aea7d95c841d9c0b9027f581c431846debd70cfabef64d90Update Swap And ...94838072021-07-26 3:57:50135 days 11 hrs ago0x98de7966e876626a4dc5648f5d706682c2b9da9bOUT 0x49c5b8305119e8541a580ad7ac2d435b8c0e9f280 BNB0.000148645
0x06855fe6d08cab75ee70857c2521464389ee5f2134490d73e1d20855474935a6Update Swap And ...94834792021-07-26 3:41:09135 days 12 hrs ago0x98de7966e876626a4dc5648f5d706682c2b9da9bOUT 0x49c5b8305119e8541a580ad7ac2d435b8c0e9f280 BNB0.000148585
0xe332810e8f00c9319b6e9f37b74c0a044d0582c6c340d50514750827adaa119aUpdate Swap And ...94427742021-07-24 17:29:08136 days 22 hrs ago0x98de7966e876626a4dc5648f5d706682c2b9da9bOUT 0x49c5b8305119e8541a580ad7ac2d435b8c0e9f280 BNB0.000148645
0x24ee134fc60d9d65c8d133c794e7cbd2535f88a461790ff834d944000b72de6fUpdate Swap And ...94422562021-07-24 17:02:28136 days 22 hrs ago0x98de7966e876626a4dc5648f5d706682c2b9da9bOUT 0x49c5b8305119e8541a580ad7ac2d435b8c0e9f280 BNB0.000148585
0x973bad5e018ef8ab50e84da38fc1921894ec8922c27305174c26e8a99b56f54eAdd Liquidity94390102021-07-24 14:15:05137 days 1 hr ago0x98de7966e876626a4dc5648f5d706682c2b9da9bOUT PancakeSwap: Router v20 BNB0.00111502
0xa0eeb1cf3d5bc4f566d23aef2ab91c959e417f05e2a4ea2c7c9b1607ec26b829Approve94389962021-07-24 14:14:23137 days 1 hr ago0x98de7966e876626a4dc5648f5d706682c2b9da9bOUT Papadoge: PAPADOGE Token0 BNB0.00022558
0xe892da2157121cf00837a74f7cb45b026781f5fb5e69079b9457d28c5d36beb5Swap Exact ETH F...94389842021-07-24 14:13:45137 days 1 hr ago0x98de7966e876626a4dc5648f5d706682c2b9da9bOUT PancakeSwap: Router v20.01 BNB0.000602855
0x29d5e56c04ee8e2ea25f1d2e142485457f1d6d1ffaafec04613069a4efea05b7Swap Exact ETH F...94389272021-07-24 14:10:31137 days 1 hr ago0x98de7966e876626a4dc5648f5d706682c2b9da9bOUT PancakeSwap: Router v20.01 BNB0.000677855
0x10c9d32bd7546847a9005dba1f3be272d1ccd0c184f1ee6bcfe774a7f5d5113dSwap Exact ETH F...94389172021-07-24 14:10:00137 days 1 hr ago0x98de7966e876626a4dc5648f5d706682c2b9da9bOUT PancakeSwap: Router v20.01 BNB0.000731495
0xd655370e4c3ea74b0941458792a3bce0c230409797ebf944b958e767deb563ccExecute Transact...94172222021-07-23 19:59:51137 days 19 hrs ago0x98de7966e876626a4dc5648f5d706682c2b9da9bOUT 0x1b104f34084ea42163fe8a0e603013d0ce3cf7660 BNB0.003083445
0xbe1a53c6735915b5d894e9f24030686ec25ca1bd12a137b84ac0361e346ca0baQueue Transactio...93986212021-07-23 4:22:36138 days 11 hrs ago0x98de7966e876626a4dc5648f5d706682c2b9da9bOUT 0x1b104f34084ea42163fe8a0e603013d0ce3cf7660 BNB0.0002587
0xae7730336d3b76155856cd75981ab34a9634f797cd7edd3f3f508e71d07ac2ccExecute Transact...93985402021-07-23 4:18:33138 days 11 hrs ago0x98de7966e876626a4dc5648f5d706682c2b9da9bOUT 0x1b104f34084ea42163fe8a0e603013d0ce3cf7660 BNB0.003083445
0x03435f632846696202da028b7c0430de16ed74eee890b3116677897380dacc18Queue Transactio...93985072021-07-23 4:16:54138 days 11 hrs ago0x98de7966e876626a4dc5648f5d706682c2b9da9bOUT 0x1b104f34084ea42163fe8a0e603013d0ce3cf7660 BNB0.0002587
0x4f841d58378ccff3021580f58d22010ab38338d3d493deb3d4d59884b598953eUpdate Swap And ...93981482021-07-23 3:58:57138 days 11 hrs ago0x98de7966e876626a4dc5648f5d706682c2b9da9bOUT 0x49c5b8305119e8541a580ad7ac2d435b8c0e9f280 BNB0.000148645
0x8240e88d50f4247ea0f5c282dd65d072128caf235790d927b36a80a3edd0aa0bUpdate Swap And ...93980202021-07-23 3:52:33138 days 12 hrs ago0x98de7966e876626a4dc5648f5d706682c2b9da9bOUT 0x49c5b8305119e8541a580ad7ac2d435b8c0e9f280 BNB0.000148585
0x4b818686d71f4dce9ed90fd3086431916b59161d6d8e9df7b5ea1bca5f59e319Update Swap And ...93283162021-07-20 17:46:06140 days 22 hrs ago0x98de7966e876626a4dc5648f5d706682c2b9da9bOUT 0x49c5b8305119e8541a580ad7ac2d435b8c0e9f280 BNB0.000148645
0x11e86c4c599a9a0a373245ea527734848530c306ce6d77450c3a20c573af2feaUpdate Swap And ...93276722021-07-20 17:13:54140 days 22 hrs ago0x98de7966e876626a4dc5648f5d706682c2b9da9bOUT 0x49c5b8305119e8541a580ad7ac2d435b8c0e9f280 BNB0.000148585
0x96df7214868f83fe7f25f46468f836800d0581ae7543dc78c61617f5adaf1e16Transfer93175972021-07-20 8:49:49141 days 7 hrs ago0x98de7966e876626a4dc5648f5d706682c2b9da9bOUT0xb44a0bc21ef039b874d281110de53dfa8ddd3bfc1 BNB0.000105
0x1e8c92533527372e175cd7e7979ec12a629acb8b5b5f88da045d2f9122c0101aQueue Transactio...93136092021-07-20 5:30:25141 days 10 hrs ago0x98de7966e876626a4dc5648f5d706682c2b9da9bOUT 0x1b104f34084ea42163fe8a0e603013d0ce3cf7660 BNB0.0002587
0x7b3503c0a0a1b56640543bf343f1b396042c462a08075c8ebd37ebb4a5ae86f4Transfer Ownersh...93007962021-07-19 18:49:00141 days 21 hrs ago0x98de7966e876626a4dc5648f5d706682c2b9da9bOUT 0x1c44527a06a200d0cf4b2be738a7a5abfddf840e0 BNB0.000150555
0xa230fac7caa89d842aaf99488f414f69efca765dfbf4b88db726d8907cb8b623Transfer Ownersh...92977512021-07-19 16:16:13141 days 23 hrs ago0x98de7966e876626a4dc5648f5d706682c2b9da9bOUT 0x49c5b8305119e8541a580ad7ac2d435b8c0e9f280 BNB0.00015067
0x3a7803c5d45246708e135dd587fa7bdea12f61dfb80eaf64f52e1d9bb3eb0f11Add92977462021-07-19 16:15:58141 days 23 hrs ago0x98de7966e876626a4dc5648f5d706682c2b9da9bOUT 0x1c44527a06a200d0cf4b2be738a7a5abfddf840e0 BNB0.000690905
0xdf8e3f39a511b53f0b91f1991292f3096436c9b025782302f30775ab7df31f81Add92977442021-07-19 16:15:52141 days 23 hrs ago0x98de7966e876626a4dc5648f5d706682c2b9da9bOUT 0x1c44527a06a200d0cf4b2be738a7a5abfddf840e0 BNB0.00068151
0x833a95e28f698d90a787ad521b1b3914131aaa3d21488c64dc7ec434ec5ea1f3Add92977412021-07-19 16:15:43141 days 23 hrs ago0x98de7966e876626a4dc5648f5d706682c2b9da9bOUT 0x1c44527a06a200d0cf4b2be738a7a5abfddf840e0 BNB0.000672055
0x650e4fa1cce9b4f919b2d666b21c94c4917f8b7029f5017b7a19892ba9086b18Add92977382021-07-19 16:15:34141 days 23 hrs ago0x98de7966e876626a4dc5648f5d706682c2b9da9bOUT 0x1c44527a06a200d0cf4b2be738a7a5abfddf840e0 BNB0.00066278
[ Download CSV Export 
Parent Txn Hash Block From To Value
Loading

Contract Name:
0 BNB

Compiler Version
0

Optimization Enabled:
0 BNB

Other Settings:
-NA-
Block Transaction Gas Used Reward
Age Block Fee Address BC Fee Address Voting Power Jailed Incoming
Block Uncle Number Difficulty Gas Used Reward
Loading
Loading
Make sure to use the "Vote Down" button for any spammy posts, and the "Vote Up" for interesting conversations.